Year,Month,Day,Hour,Minute,Value (Times are PST for temperature in C)
2016,07,03,00,00,13.80
2016,07,03,00,01,13.80
2016,07,03,00,02,13.80
2016,07,03,00,03,13.80
2016,07,03,00,04,13.80
2016,07,03,00,05,13.80
2016,07,03,00,06,13.80
2016,07,03,00,07,13.80
2016,07,03,00,08,13.80
2016,07,03,00,09,13.80
2016,07,03,00,10,13.80
2016,07,03,00,11,13.80
2016,07,03,00,12,13.80
2016,07,03,00,13,13.80
2016,07,03,00,14,13.80
2016,07,03,00,15,13.80
2016,07,03,00,16,13.80
2016,07,03,00,17,13.80
2016,07,03,00,18,13.80
2016,07,03,00,19,13.80
2016,07,03,00,20,13.80
2016,07,03,00,21,13.80
2016,07,03,00,22,13.80
2016,07,03,00,23,13.80
2016,07,03,00,24,13.80
2016,07,03,00,25,13.80
2016,07,03,00,26,13.80
2016,07,03,00,27,13.80
2016,07,03,00,28,13.80
2016,07,03,00,29,13.80
2016,07,03,00,30,13.80
2016,07,03,00,31,13.80
2016,07,03,00,32,13.80
2016,07,03,00,33,13.90
2016,07,03,00,34,13.80
2016,07,03,00,35,13.90
2016,07,03,00,36,13.80
2016,07,03,00,37,13.90
2016,07,03,00,38,13.90
2016,07,03,00,39,13.90
2016,07,03,00,40,13.90
2016,07,03,00,41,13.90
2016,07,03,00,42,13.80
2016,07,03,00,43,13.90
2016,07,03,00,44,13.80
2016,07,03,00,45,13.90
2016,07,03,00,46,13.80
2016,07,03,00,47,13.80
2016,07,03,00,48,13.80
2016,07,03,00,49,13.80
2016,07,03,00,50,13.80
2016,07,03,00,51,13.80
2016,07,03,00,52,13.80
2016,07,03,00,53,13.80
2016,07,03,00,54,13.70
2016,07,03,00,55,13.70
2016,07,03,00,56,13.70
2016,07,03,00,57,13.60
2016,07,03,00,58,13.60
2016,07,03,00,59,13.60
2016,07,03,01,00,13.60
2016,07,03,01,01,13.60
2016,07,03,01,02,13.60
2016,07,03,01,03,13.60
2016,07,03,01,04,13.60
2016,07,03,01,05,13.60
2016,07,03,01,06,13.70
2016,07,03,01,07,13.70
2016,07,03,01,08,13.70
2016,07,03,01,09,13.70
2016,07,03,01,10,13.70
2016,07,03,01,11,13.70
2016,07,03,01,12,13.80
2016,07,03,01,13,13.80
2016,07,03,01,14,13.80
2016,07,03,01,15,13.80
2016,07,03,01,16,13.80
2016,07,03,01,17,13.80
2016,07,03,01,18,13.80
2016,07,03,01,19,13.80
2016,07,03,01,20,13.70
2016,07,03,01,21,13.70
2016,07,03,01,22,13.70
2016,07,03,01,23,13.70
2016,07,03,01,24,13.70
2016,07,03,01,25,13.70
2016,07,03,01,26,13.70
2016,07,03,01,27,13.70
2016,07,03,01,28,13.70
2016,07,03,01,29,13.70
2016,07,03,01,30,13.70
2016,07,03,01,31,13.60
2016,07,03,01,32,13.60
2016,07,03,01,33,13.60
2016,07,03,01,34,13.60
2016,07,03,01,35,13.60
2016,07,03,01,36,13.60
2016,07,03,01,37,13.60
2016,07,03,01,38,13.50
2016,07,03,01,39,13.50
2016,07,03,01,40,13.50
2016,07,03,01,41,13.50
2016,07,03,01,42,13.50
2016,07,03,01,43,13.50
2016,07,03,01,44,13.40
2016,07,03,01,45,13.40
2016,07,03,01,46,13.40
2016,07,03,01,47,13.40
2016,07,03,01,48,13.40
2016,07,03,01,49,13.40
2016,07,03,01,50,13.40
2016,07,03,01,51,13.30
2016,07,03,01,52,13.30
2016,07,03,01,53,13.30
2016,07,03,01,54,13.30
2016,07,03,01,55,13.30
2016,07,03,01,56,13.30
2016,07,03,01,57,13.30
2016,07,03,01,58,13.30
2016,07,03,01,59,13.30
2016,07,03,02,00,13.20
2016,07,03,02,01,13.20
2016,07,03,02,02,13.20
2016,07,03,02,03,13.20
2016,07,03,02,04,13.20
2016,07,03,02,05,13.20
2016,07,03,02,06,13.10
2016,07,03,02,07,13.10
2016,07,03,02,08,13.10
2016,07,03,02,09,13.10
2016,07,03,02,10,13.10
2016,07,03,02,11,13.10
2016,07,03,02,12,13.00
2016,07,03,02,13,13.00
2016,07,03,02,14,13.00
2016,07,03,02,15,13.00
2016,07,03,02,16,13.00
2016,07,03,02,17,12.90
2016,07,03,02,18,12.90
2016,07,03,02,19,12.90
2016,07,03,02,20,12.90
2016,07,03,02,21,12.80
2016,07,03,02,22,12.80
2016,07,03,02,23,12.80
2016,07,03,02,24,12.80
2016,07,03,02,25,12.80
2016,07,03,02,26,12.80
2016,07,03,02,27,12.70
2016,07,03,02,28,12.70
2016,07,03,02,29,12.70
2016,07,03,02,30,12.70
2016,07,03,02,31,12.60
2016,07,03,02,32,12.60
2016,07,03,02,33,12.60
2016,07,03,02,34,12.60
2016,07,03,02,35,12.50
2016,07,03,02,36,12.50
2016,07,03,02,37,12.50
2016,07,03,02,38,12.50
2016,07,03,02,39,12.50
2016,07,03,02,40,12.40
2016,07,03,02,41,12.40
2016,07,03,02,42,12.40
2016,07,03,02,43,12.30
2016,07,03,02,44,12.30
2016,07,03,02,45,12.30
2016,07,03,02,46,12.30
2016,07,03,02,47,12.30
2016,07,03,02,48,12.30
2016,07,03,02,49,12.30
2016,07,03,02,50,12.20
2016,07,03,02,51,12.20
2016,07,03,02,52,12.20
2016,07,03,02,53,12.20
2016,07,03,02,54,12.20
2016,07,03,02,55,12.20
2016,07,03,02,56,12.20
2016,07,03,02,57,12.20
2016,07,03,02,58,12.20
2016,07,03,02,59,12.20
2016,07,03,03,00,12.20
2016,07,03,03,01,12.20
2016,07,03,03,02,12.20
2016,07,03,03,03,12.20
2016,07,03,03,04,12.20
2016,07,03,03,05,12.30
2016,07,03,03,06,12.20
2016,07,03,03,07,12.20
2016,07,03,03,08,12.20
2016,07,03,03,09,12.20
2016,07,03,03,10,12.20
2016,07,03,03,11,12.20
2016,07,03,03,12,12.20
2016,07,03,03,13,12.20
2016,07,03,03,14,12.20
2016,07,03,03,15,12.20
2016,07,03,03,16,12.20
2016,07,03,03,17,12.20
2016,07,03,03,18,12.20
2016,07,03,03,19,12.20
2016,07,03,03,20,12.20
2016,07,03,03,21,12.10
2016,07,03,03,22,12.10
2016,07,03,03,23,12.10
2016,07,03,03,24,12.10
2016,07,03,03,25,12.10
2016,07,03,03,26,12.00
2016,07,03,03,27,12.00
2016,07,03,03,28,12.00
2016,07,03,03,29,11.90
2016,07,03,03,30,11.90
2016,07,03,03,31,11.90
2016,07,03,03,32,11.80
2016,07,03,03,33,11.80
2016,07,03,03,34,11.80
2016,07,03,03,35,11.80
2016,07,03,03,36,11.70
2016,07,03,03,37,11.70
2016,07,03,03,38,11.70
2016,07,03,03,39,11.70
2016,07,03,03,40,11.70
2016,07,03,03,41,11.70
2016,07,03,03,42,11.70
2016,07,03,03,43,11.60
2016,07,03,03,44,11.60
2016,07,03,03,45,11.60
2016,07,03,03,46,11.60
2016,07,03,03,47,11.50
2016,07,03,03,48,11.50
2016,07,03,03,49,11.50
2016,07,03,03,50,11.50
2016,07,03,03,51,11.40
2016,07,03,03,52,11.40
2016,07,03,03,53,11.40
2016,07,03,03,54,11.40
2016,07,03,03,55,11.40
2016,07,03,03,56,11.30
2016,07,03,03,57,11.30
2016,07,03,03,58,11.30
2016,07,03,03,59,11.30
2016,07,03,04,00,11.30
2016,07,03,04,01,11.20
2016,07,03,04,02,11.20
2016,07,03,04,03,11.20
2016,07,03,04,04,11.20
2016,07,03,04,05,11.10
2016,07,03,04,06,11.10
2016,07,03,04,07,11.10
2016,07,03,04,08,11.10
2016,07,03,04,09,11.10
2016,07,03,04,10,11.00
2016,07,03,04,11,11.00
2016,07,03,04,12,11.00
2016,07,03,04,13,10.90
2016,07,03,04,14,10.90
2016,07,03,04,15,10.90
2016,07,03,04,16,10.90
2016,07,03,04,17,10.90
2016,07,03,04,18,10.80
2016,07,03,04,19,10.80
2016,07,03,04,20,10.80
2016,07,03,04,21,10.80
2016,07,03,04,22,10.70
2016,07,03,04,23,10.70
2016,07,03,04,24,10.70
2016,07,03,04,25,10.60
2016,07,03,04,26,10.60
2016,07,03,04,27,10.60
2016,07,03,04,28,10.60
2016,07,03,04,29,10.50
2016,07,03,04,30,10.50
2016,07,03,04,31,10.50
2016,07,03,04,32,10.40
2016,07,03,04,33,10.40
2016,07,03,04,34,10.40
2016,07,03,04,35,10.40
2016,07,03,04,36,10.40
2016,07,03,04,37,10.40
2016,07,03,04,38,10.40
2016,07,03,04,39,10.40
2016,07,03,04,40,10.30
2016,07,03,04,41,10.30
2016,07,03,04,42,10.30
2016,07,03,04,43,10.30
2016,07,03,04,44,10.30
2016,07,03,04,45,10.30
2016,07,03,04,46,10.30
2016,07,03,04,47,10.30
2016,07,03,04,48,10.30
2016,07,03,04,49,10.30
2016,07,03,04,50,10.30
2016,07,03,04,51,10.30
2016,07,03,04,52,10.30
2016,07,03,04,53,10.30
2016,07,03,04,54,10.30
2016,07,03,04,55,10.30
2016,07,03,04,56,10.30
2016,07,03,04,57,10.30
2016,07,03,04,58,10.30
2016,07,03,04,59,10.20
2016,07,03,05,00,10.20
2016,07,03,05,01,10.20
2016,07,03,05,02,10.20
2016,07,03,05,03,10.20
2016,07,03,05,04,10.20
2016,07,03,05,05,10.20
2016,07,03,05,06,10.10
2016,07,03,05,07,10.10
2016,07,03,05,08,10.10
2016,07,03,05,09,10.10
2016,07,03,05,10,10.10
2016,07,03,05,11,10.10
2016,07,03,05,12,10.10
2016,07,03,05,13,10.10
2016,07,03,05,14,10.00
2016,07,03,05,15,10.00
2016,07,03,05,16,10.00
2016,07,03,05,17,10.00
2016,07,03,05,18,9.90
2016,07,03,05,19,9.90
2016,07,03,05,20,9.90
2016,07,03,05,21,9.90
2016,07,03,05,22,9.80
2016,07,03,05,23,9.80
2016,07,03,05,24,9.80
2016,07,03,05,25,9.80
2016,07,03,05,26,9.80
2016,07,03,05,27,9.80
2016,07,03,05,28,9.80
2016,07,03,05,29,9.70
2016,07,03,05,30,9.70
2016,07,03,05,31,9.70
2016,07,03,05,32,9.70
2016,07,03,05,33,9.70
2016,07,03,05,34,9.70
2016,07,03,05,35,9.70
2016,07,03,05,36,9.70
2016,07,03,05,37,9.70
2016,07,03,05,38,9.70
2016,07,03,05,39,9.70
2016,07,03,05,40,9.70
2016,07,03,05,41,9.70
2016,07,03,05,42,9.70
2016,07,03,05,43,9.70
2016,07,03,05,44,9.70
2016,07,03,05,45,9.70
2016,07,03,05,46,9.70
2016,07,03,05,47,9.70
2016,07,03,05,48,9.70
2016,07,03,05,49,9.70
2016,07,03,05,50,9.60
2016,07,03,05,51,9.60
2016,07,03,05,52,9.60
2016,07,03,05,53,9.60
2016,07,03,05,54,9.70
2016,07,03,05,55,9.70
2016,07,03,05,56,9.70
2016,07,03,05,57,9.70
2016,07,03,05,58,9.70
2016,07,03,05,59,9.70
2016,07,03,06,00,9.70
2016,07,03,06,01,9.70
2016,07,03,06,02,9.80
2016,07,03,06,03,9.80
2016,07,03,06,04,9.80
2016,07,03,06,05,9.80
2016,07,03,06,06,9.80
2016,07,03,06,07,9.80
2016,07,03,06,08,9.90
2016,07,03,06,09,9.90
2016,07,03,06,10,9.90
2016,07,03,06,11,9.90
2016,07,03,06,12,9.90
2016,07,03,06,13,9.90
2016,07,03,06,14,10.00
2016,07,03,06,15,10.00
2016,07,03,06,16,10.00
2016,07,03,06,17,10.00
2016,07,03,06,18,10.00
2016,07,03,06,19,10.10
2016,07,03,06,20,10.10
2016,07,03,06,21,10.10
2016,07,03,06,22,10.10
2016,07,03,06,23,10.10
2016,07,03,06,24,10.10
2016,07,03,06,25,10.10
2016,07,03,06,26,10.10
2016,07,03,06,27,10.10
2016,07,03,06,28,10.00
2016,07,03,06,29,10.00
2016,07,03,06,30,10.00
2016,07,03,06,31,10.00
2016,07,03,06,32,10.00
2016,07,03,06,33,10.00
2016,07,03,06,34,10.00
2016,07,03,06,35,10.00
2016,07,03,06,36,10.00
2016,07,03,06,37,10.10
2016,07,03,06,38,10.10
2016,07,03,06,39,10.10
2016,07,03,06,40,10.20
2016,07,03,06,41,10.20
2016,07,03,06,42,10.20
2016,07,03,06,43,10.30
2016,07,03,06,44,10.30
2016,07,03,06,45,10.40
2016,07,03,06,46,10.40
2016,07,03,06,47,10.50
2016,07,03,06,48,10.50
2016,07,03,06,49,10.60
2016,07,03,06,50,10.70
2016,07,03,06,51,10.70
2016,07,03,06,52,10.80
2016,07,03,06,53,10.80
2016,07,03,06,54,10.90
2016,07,03,06,55,11.00
2016,07,03,06,56,11.00
2016,07,03,06,57,11.10
2016,07,03,06,58,11.20
2016,07,03,06,59,11.30
2016,07,03,07,00,11.30
2016,07,03,07,01,11.40
2016,07,03,07,02,11.50
2016,07,03,07,03,11.60
2016,07,03,07,04,11.70
2016,07,03,07,05,11.70
2016,07,03,07,06,11.80
2016,07,03,07,07,11.90
2016,07,03,07,08,12.00
2016,07,03,07,09,12.10
2016,07,03,07,10,12.30
2016,07,03,07,11,12.30
2016,07,03,07,12,12.40
2016,07,03,07,13,12.50
2016,07,03,07,14,12.60
2016,07,03,07,15,12.70
2016,07,03,07,16,12.80
2016,07,03,07,17,13.00
2016,07,03,07,18,13.20
2016,07,03,07,19,13.30
2016,07,03,07,20,13.40
2016,07,03,07,21,13.50
2016,07,03,07,22,13.60
2016,07,03,07,23,13.70
2016,07,03,07,24,13.90
2016,07,03,07,25,14.00
2016,07,03,07,26,14.10
2016,07,03,07,27,14.30
2016,07,03,07,28,14.30
2016,07,03,07,29,14.30
2016,07,03,07,30,14.30
2016,07,03,07,31,14.30
2016,07,03,07,32,14.30
2016,07,03,07,33,14.30
2016,07,03,07,34,14.40
2016,07,03,07,35,14.40
2016,07,03,07,36,14.50
2016,07,03,07,37,14.60
2016,07,03,07,38,14.60
2016,07,03,07,39,14.70
2016,07,03,07,40,14.70
2016,07,03,07,41,14.70
2016,07,03,07,42,14.70
2016,07,03,07,43,14.70
2016,07,03,07,44,14.80
2016,07,03,07,45,14.80
2016,07,03,07,46,14.90
2016,07,03,07,47,14.90
2016,07,03,07,48,14.90
2016,07,03,07,49,14.90
2016,07,03,07,50,15.00
2016,07,03,07,51,15.00
2016,07,03,07,52,15.00
2016,07,03,07,53,15.00
2016,07,03,07,54,15.10
2016,07,03,07,55,15.10
2016,07,03,07,56,15.10
2016,07,03,07,57,15.10
2016,07,03,07,58,15.10
2016,07,03,07,59,15.20
2016,07,03,08,00,15.20
2016,07,03,08,01,15.30
2016,07,03,08,02,15.30
2016,07,03,08,03,15.30
2016,07,03,08,04,15.30
2016,07,03,08,05,15.30
2016,07,03,08,06,15.40
2016,07,03,08,07,15.40
2016,07,03,08,08,15.40
2016,07,03,08,09,15.40
2016,07,03,08,10,15.50
2016,07,03,08,11,15.60
2016,07,03,08,12,15.60
2016,07,03,08,13,15.60
2016,07,03,08,14,15.60
2016,07,03,08,15,15.60
2016,07,03,08,16,15.60
2016,07,03,08,17,15.70
2016,07,03,08,18,15.70
2016,07,03,08,19,15.70
2016,07,03,08,20,15.70
2016,07,03,08,21,15.60
2016,07,03,08,22,15.60
2016,07,03,08,23,15.60
2016,07,03,08,24,15.70
2016,07,03,08,25,15.70
2016,07,03,08,26,15.70
2016,07,03,08,27,15.70
2016,07,03,08,28,15.80
2016,07,03,08,29,15.80
2016,07,03,08,30,15.80
2016,07,03,08,31,15.80
2016,07,03,08,32,15.90
2016,07,03,08,33,15.90
2016,07,03,08,34,15.90
2016,07,03,08,35,16.00
2016,07,03,08,36,16.10
2016,07,03,08,37,16.20
2016,07,03,08,38,16.20
2016,07,03,08,39,16.20
2016,07,03,08,40,16.20
2016,07,03,08,41,16.30
2016,07,03,08,42,16.30
2016,07,03,08,43,16.30
2016,07,03,08,44,16.20
2016,07,03,08,45,16.20
2016,07,03,08,46,16.30
2016,07,03,08,47,16.30
2016,07,03,08,48,16.30
2016,07,03,08,49,16.30
2016,07,03,08,50,16.20
2016,07,03,08,51,16.10
2016,07,03,08,52,16.10
2016,07,03,08,53,16.00
2016,07,03,08,54,15.90
2016,07,03,08,55,15.90
2016,07,03,08,56,15.80
2016,07,03,08,57,15.80
2016,07,03,08,58,15.80
2016,07,03,08,59,15.80
2016,07,03,09,00,15.70
2016,07,03,09,01,15.70
2016,07,03,09,02,15.70
2016,07,03,09,03,15.60
2016,07,03,09,04,15.70
2016,07,03,09,05,15.70
2016,07,03,09,06,15.70
2016,07,03,09,07,15.70
2016,07,03,09,08,15.70
2016,07,03,09,09,15.70
2016,07,03,09,10,15.80
2016,07,03,09,11,15.80
2016,07,03,09,12,15.80
2016,07,03,09,13,15.80
2016,07,03,09,14,15.80
2016,07,03,09,15,15.90
2016,07,03,09,16,15.90
2016,07,03,09,17,16.00
2016,07,03,09,18,16.00
2016,07,03,09,19,16.10
2016,07,03,09,20,16.20
2016,07,03,09,21,16.20
2016,07,03,09,22,16.30
2016,07,03,09,23,16.20
2016,07,03,09,24,16.20
2016,07,03,09,25,16.20
2016,07,03,09,26,16.20
2016,07,03,09,27,16.20
2016,07,03,09,28,16.20
2016,07,03,09,29,16.20
2016,07,03,09,30,16.20
2016,07,03,09,31,16.20
2016,07,03,09,32,16.30
2016,07,03,09,33,16.30
2016,07,03,09,34,16.30
2016,07,03,09,35,16.30
2016,07,03,09,36,16.30
2016,07,03,09,37,16.30
2016,07,03,09,38,16.30
2016,07,03,09,39,16.30
2016,07,03,09,40,16.30
2016,07,03,09,41,16.40
2016,07,03,09,42,16.40
2016,07,03,09,43,16.30
2016,07,03,09,44,16.30
2016,07,03,09,45,16.30
2016,07,03,09,46,16.30
2016,07,03,09,47,16.20
2016,07,03,09,48,16.20
2016,07,03,09,49,16.20
2016,07,03,09,50,16.20
2016,07,03,09,51,16.30
2016,07,03,09,52,16.30
2016,07,03,09,53,16.20
2016,07,03,09,54,16.20
2016,07,03,09,55,16.20
2016,07,03,09,56,16.20
2016,07,03,09,57,16.20
2016,07,03,09,58,16.30
2016,07,03,09,59,16.40
2016,07,03,10,00,16.50
2016,07,03,10,01,16.60
2016,07,03,10,02,16.60
2016,07,03,10,03,16.60
2016,07,03,10,04,16.60
2016,07,03,10,05,16.60
2016,07,03,10,06,16.70
2016,07,03,10,07,16.70
2016,07,03,10,08,16.80
2016,07,03,10,09,16.80
2016,07,03,10,10,16.90
2016,07,03,10,11,17.00
2016,07,03,10,12,17.00
2016,07,03,10,13,17.00
2016,07,03,10,14,16.90
2016,07,03,10,15,16.80
2016,07,03,10,16,16.80
2016,07,03,10,17,16.90
2016,07,03,10,18,17.00
2016,07,03,10,19,17.00
2016,07,03,10,20,17.10
2016,07,03,10,21,17.10
2016,07,03,10,22,17.20
2016,07,03,10,23,17.30
2016,07,03,10,24,17.40
2016,07,03,10,25,17.50
2016,07,03,10,26,17.60
2016,07,03,10,27,17.70
2016,07,03,10,28,17.70
2016,07,03,10,29,17.70
2016,07,03,10,30,17.60
2016,07,03,10,31,17.60
2016,07,03,10,32,17.50
2016,07,03,10,33,17.40
2016,07,03,10,34,17.40
2016,07,03,10,35,17.40
2016,07,03,10,36,17.50
2016,07,03,10,37,17.50
2016,07,03,10,38,17.60
2016,07,03,10,39,17.60
2016,07,03,10,40,17.50
2016,07,03,10,41,17.50
2016,07,03,10,42,17.50
2016,07,03,10,43,17.50
2016,07,03,10,44,17.50
2016,07,03,10,45,17.50
2016,07,03,10,46,17.50
2016,07,03,10,47,17.40
2016,07,03,10,48,17.40
2016,07,03,10,49,17.50
2016,07,03,10,50,17.50
2016,07,03,10,51,17.60
2016,07,03,10,52,17.60
2016,07,03,10,53,17.60
2016,07,03,10,54,17.50
2016,07,03,10,55,17.50
2016,07,03,10,56,17.50
2016,07,03,10,57,17.60
2016,07,03,10,58,17.70
2016,07,03,10,59,17.70
2016,07,03,11,00,17.70
2016,07,03,11,01,17.70
2016,07,03,11,02,17.70
2016,07,03,11,03,17.70
2016,07,03,11,04,17.70
2016,07,03,11,05,17.60
2016,07,03,11,06,17.60
2016,07,03,11,07,17.60
2016,07,03,11,08,17.60
2016,07,03,11,09,17.50
2016,07,03,11,10,17.50
2016,07,03,11,11,17.40
2016,07,03,11,12,17.40
2016,07,03,11,13,17.40
2016,07,03,11,14,17.50
2016,07,03,11,15,17.60
2016,07,03,11,16,17.70
2016,07,03,11,17,17.80
2016,07,03,11,18,17.90
2016,07,03,11,19,18.00
2016,07,03,11,20,18.10
2016,07,03,11,21,18.20
2016,07,03,11,22,18.30
2016,07,03,11,23,18.30
2016,07,03,11,24,18.30
2016,07,03,11,25,18.30
2016,07,03,11,26,18.30
2016,07,03,11,27,18.40
2016,07,03,11,28,18.30
2016,07,03,11,29,18.30
2016,07,03,11,30,18.20
2016,07,03,11,31,18.10
2016,07,03,11,32,18.10
2016,07,03,11,33,18.10
2016,07,03,11,34,18.10
2016,07,03,11,35,18.10
2016,07,03,11,36,18.20
2016,07,03,11,37,18.20
2016,07,03,11,38,18.20
2016,07,03,11,39,18.10
2016,07,03,11,40,18.00
2016,07,03,11,41,17.90
2016,07,03,11,42,18.00
2016,07,03,11,43,18.00
2016,07,03,11,44,18.10
2016,07,03,11,45,18.20
2016,07,03,11,46,18.20
2016,07,03,11,47,18.20
2016,07,03,11,48,18.20
2016,07,03,11,49,18.10
2016,07,03,11,50,18.10
2016,07,03,11,51,18.10
2016,07,03,11,52,18.10
2016,07,03,11,53,18.10
2016,07,03,11,54,18.20
2016,07,03,11,55,18.30
2016,07,03,11,56,18.30
2016,07,03,11,57,18.30
2016,07,03,11,58,18.30
2016,07,03,11,59,18.20
2016,07,03,12,00,18.10
2016,07,03,12,01,18.10
2016,07,03,12,02,18.00
2016,07,03,12,03,18.00
2016,07,03,12,04,18.10
2016,07,03,12,05,18.20
2016,07,03,12,06,18.30
2016,07,03,12,07,18.30
2016,07,03,12,08,18.40
2016,07,03,12,09,18.40
2016,07,03,12,10,18.50
2016,07,03,12,11,18.60
2016,07,03,12,12,18.60
2016,07,03,12,13,18.50
2016,07,03,12,14,18.50
2016,07,03,12,15,18.30
2016,07,03,12,16,18.20
2016,07,03,12,17,18.10
2016,07,03,12,18,18.00
2016,07,03,12,19,18.00
2016,07,03,12,20,17.90
2016,07,03,12,21,17.90
2016,07,03,12,22,18.00
2016,07,03,12,23,18.10
2016,07,03,12,24,18.20
2016,07,03,12,25,18.20
2016,07,03,12,26,18.30
2016,07,03,12,27,18.40
2016,07,03,12,28,18.60
2016,07,03,12,29,18.70
2016,07,03,12,30,18.80
2016,07,03,12,31,18.90
2016,07,03,12,32,19.00
2016,07,03,12,33,18.90
2016,07,03,12,34,18.90
2016,07,03,12,35,18.90
2016,07,03,12,36,19.00
2016,07,03,12,37,19.00
2016,07,03,12,38,19.00
2016,07,03,12,39,19.00
2016,07,03,12,40,18.90
2016,07,03,12,41,18.90
2016,07,03,12,42,18.90
2016,07,03,12,43,18.90
2016,07,03,12,44,19.00
2016,07,03,12,45,18.90
2016,07,03,12,46,18.80
2016,07,03,12,47,18.80
2016,07,03,12,48,18.70
2016,07,03,12,49,18.70
2016,07,03,12,50,18.70
2016,07,03,12,51,18.70
2016,07,03,12,52,18.70
2016,07,03,12,53,18.80
2016,07,03,12,54,18.70
2016,07,03,12,55,18.70
2016,07,03,12,56,18.70
2016,07,03,12,57,18.80
2016,07,03,12,58,18.90
2016,07,03,12,59,19.00
2016,07,03,13,00,19.00
2016,07,03,13,01,19.10
2016,07,03,13,02,19.20
2016,07,03,13,03,19.30
2016,07,03,13,04,19.30
2016,07,03,13,05,19.30
2016,07,03,13,06,19.40
2016,07,03,13,07,19.40
2016,07,03,13,08,19.40
2016,07,03,13,09,19.30
2016,07,03,13,10,19.20
2016,07,03,13,11,19.10
2016,07,03,13,12,19.00
2016,07,03,13,13,19.00
2016,07,03,13,14,19.00
2016,07,03,13,15,19.00
2016,07,03,13,16,19.10
2016,07,03,13,17,19.10
2016,07,03,13,18,19.20
2016,07,03,13,19,19.30
2016,07,03,13,20,19.20
2016,07,03,13,21,19.10
2016,07,03,13,22,19.00
2016,07,03,13,23,18.90
2016,07,03,13,24,19.00
2016,07,03,13,25,19.00
2016,07,03,13,26,19.10
2016,07,03,13,27,19.10
2016,07,03,13,28,19.20
2016,07,03,13,29,19.30
2016,07,03,13,30,19.40
2016,07,03,13,31,19.50
2016,07,03,13,32,19.50
2016,07,03,13,33,19.40
2016,07,03,13,34,19.40
2016,07,03,13,35,19.40
2016,07,03,13,36,19.40
2016,07,03,13,37,19.40
2016,07,03,13,38,19.40
2016,07,03,13,39,19.40
2016,07,03,13,40,19.50
2016,07,03,13,41,19.50
2016,07,03,13,42,19.50
2016,07,03,13,43,19.50
2016,07,03,13,44,19.50
2016,07,03,13,45,19.50
2016,07,03,13,46,19.60
2016,07,03,13,47,19.50
2016,07,03,13,48,19.40
2016,07,03,13,49,19.30
2016,07,03,13,50,19.30
2016,07,03,13,51,19.30
2016,07,03,13,52,19.30
2016,07,03,13,53,19.30
2016,07,03,13,54,19.30
2016,07,03,13,55,19.30
2016,07,03,13,56,19.30
2016,07,03,13,57,19.30
2016,07,03,13,58,19.30
2016,07,03,13,59,19.40
2016,07,03,14,00,19.40
2016,07,03,14,01,19.40
2016,07,03,14,02,19.30
2016,07,03,14,03,19.30
2016,07,03,14,04,19.30
2016,07,03,14,05,19.30
2016,07,03,14,06,19.20
2016,07,03,14,07,19.20
2016,07,03,14,08,19.20
2016,07,03,14,09,19.20
2016,07,03,14,10,19.30
2016,07,03,14,11,19.30
2016,07,03,14,12,19.30
2016,07,03,14,13,19.30
2016,07,03,14,14,19.30
2016,07,03,14,15,19.20
2016,07,03,14,16,19.30
2016,07,03,14,17,19.30
2016,07,03,14,18,19.40
2016,07,03,14,19,19.50
2016,07,03,14,20,19.60
2016,07,03,14,21,19.60
2016,07,03,14,22,19.60
2016,07,03,14,23,19.60
2016,07,03,14,24,19.60
2016,07,03,14,25,19.50
2016,07,03,14,26,19.40
2016,07,03,14,27,19.40
2016,07,03,14,28,19.30
2016,07,03,14,29,19.30
2016,07,03,14,30,19.40
2016,07,03,14,31,19.50
2016,07,03,14,32,19.60
2016,07,03,14,33,19.70
2016,07,03,14,34,19.80
2016,07,03,14,35,19.80
2016,07,03,14,36,19.80
2016,07,03,14,37,19.80
2016,07,03,14,38,19.80
2016,07,03,14,39,19.80
2016,07,03,14,40,19.80
2016,07,03,14,41,19.80
2016,07,03,14,42,19.80
2016,07,03,14,43,19.70
2016,07,03,14,44,19.60
2016,07,03,14,45,19.50
2016,07,03,14,46,19.50
2016,07,03,14,47,19.40
2016,07,03,14,48,19.40
2016,07,03,14,49,19.40
2016,07,03,14,50,19.40
2016,07,03,14,51,19.40
2016,07,03,14,52,19.40
2016,07,03,14,53,19.40
2016,07,03,14,54,19.40
2016,07,03,14,55,19.40
2016,07,03,14,56,19.40
2016,07,03,14,57,19.30
2016,07,03,14,58,19.30
2016,07,03,14,59,19.40
2016,07,03,15,00,19.40
2016,07,03,15,01,19.50
2016,07,03,15,02,19.50
2016,07,03,15,03,19.50
2016,07,03,15,04,19.50
2016,07,03,15,05,19.50
2016,07,03,15,06,19.50
2016,07,03,15,07,19.50
2016,07,03,15,08,19.40
2016,07,03,15,09,19.40
2016,07,03,15,10,19.40
2016,07,03,15,11,19.50
2016,07,03,15,12,19.50
2016,07,03,15,13,19.50
2016,07,03,15,14,19.50
2016,07,03,15,15,19.50
2016,07,03,15,16,19.50
2016,07,03,15,17,19.40
2016,07,03,15,18,19.40
2016,07,03,15,19,19.40
2016,07,03,15,20,19.40
2016,07,03,15,21,19.40
2016,07,03,15,22,19.40
2016,07,03,15,23,19.40
2016,07,03,15,24,19.40
2016,07,03,15,25,19.30
2016,07,03,15,26,19.30
2016,07,03,15,27,19.30
2016,07,03,15,28,19.30
2016,07,03,15,29,19.30
2016,07,03,15,30,19.40
2016,07,03,15,31,19.40
2016,07,03,15,32,19.50
2016,07,03,15,33,19.60
2016,07,03,15,34,19.60
2016,07,03,15,35,19.70
2016,07,03,15,36,19.70
2016,07,03,15,37,19.80
2016,07,03,15,38,19.80
2016,07,03,15,39,19.80
2016,07,03,15,40,19.90
2016,07,03,15,41,20.00
2016,07,03,15,42,20.00
2016,07,03,15,43,20.00
2016,07,03,15,44,20.00
2016,07,03,15,45,20.10
2016,07,03,15,46,20.10
2016,07,03,15,47,20.20
2016,07,03,15,48,20.20
2016,07,03,15,49,20.20
2016,07,03,15,50,20.20
2016,07,03,15,51,20.20
2016,07,03,15,52,20.10
2016,07,03,15,53,20.10
2016,07,03,15,54,20.10
2016,07,03,15,55,20.10
2016,07,03,15,56,20.10
2016,07,03,15,57,20.20
2016,07,03,15,58,20.20
2016,07,03,15,59,20.20
2016,07,03,16,00,20.20
2016,07,03,16,01,20.10
2016,07,03,16,02,20.00
2016,07,03,16,03,20.00
2016,07,03,16,04,19.90
2016,07,03,16,05,19.90
2016,07,03,16,06,19.90
2016,07,03,16,07,19.90
2016,07,03,16,08,19.90
2016,07,03,16,09,19.90
2016,07,03,16,10,19.90
2016,07,03,16,11,19.80
2016,07,03,16,12,19.80
2016,07,03,16,13,19.80
2016,07,03,16,14,19.90
2016,07,03,16,15,19.90
2016,07,03,16,16,19.90
2016,07,03,16,17,19.90
2016,07,03,16,18,19.90
2016,07,03,16,19,19.90
2016,07,03,16,20,19.80
2016,07,03,16,21,19.80
2016,07,03,16,22,19.80
2016,07,03,16,23,19.80
2016,07,03,16,24,19.80
2016,07,03,16,25,19.90
2016,07,03,16,26,19.90
2016,07,03,16,27,19.90
2016,07,03,16,28,19.80
2016,07,03,16,29,19.80
2016,07,03,16,30,19.80
2016,07,03,16,31,19.80
2016,07,03,16,32,19.70
2016,07,03,16,33,19.70
2016,07,03,16,34,19.80
2016,07,03,16,35,19.80
2016,07,03,16,36,19.80
2016,07,03,16,37,19.90
2016,07,03,16,38,19.90
2016,07,03,16,39,20.00
2016,07,03,16,40,20.00
2016,07,03,16,41,20.00
2016,07,03,16,42,20.10
2016,07,03,16,43,20.10
2016,07,03,16,44,20.10
2016,07,03,16,45,20.10
2016,07,03,16,46,20.10
2016,07,03,16,47,20.20
2016,07,03,16,48,20.20
2016,07,03,16,49,20.20
2016,07,03,16,50,20.10
2016,07,03,16,51,20.10
2016,07,03,16,52,20.10
2016,07,03,16,53,20.20
2016,07,03,16,54,20.20
2016,07,03,16,55,20.30
2016,07,03,16,56,20.40
2016,07,03,16,57,20.50
2016,07,03,16,58,20.50
2016,07,03,16,59,20.60
2016,07,03,17,00,20.60
2016,07,03,17,01,20.60
2016,07,03,17,02,20.60
2016,07,03,17,03,20.50
2016,07,03,17,04,20.40
2016,07,03,17,05,20.30
2016,07,03,17,06,20.20
2016,07,03,17,07,20.20
2016,07,03,17,08,20.10
2016,07,03,17,09,20.10
2016,07,03,17,10,20.10
2016,07,03,17,11,20.10
2016,07,03,17,12,20.10
2016,07,03,17,13,20.10
2016,07,03,17,14,20.00
2016,07,03,17,15,20.00
2016,07,03,17,16,19.90
2016,07,03,17,17,19.80
2016,07,03,17,18,19.80
2016,07,03,17,19,19.80
2016,07,03,17,20,19.80
2016,07,03,17,21,19.80